Burlington, CO

7:43 PM MDT on July 27, 2017 (GMT -0600)
Kit Carson County

Weather History for KITR - December, 2013

Change the Weather History Date:

Saturday, December 7, 2013

  Actual Average Record
Temperature  
Mean Temperature 6 °F 30 °F  
Max Temperature 8 °F 43 °F 68 °F (1923)
Min Temperature 4 °F 16 °F -12 °F (2005)
Degree Days  
Heating Degree Days 60    
Moisture  
Dew Point -2 °F    
Average Humidity 70    
Maximum Humidity 80    
Minimum Humidity 58    
Precipitation  
Precipitation T in 0.01 in 0.14 in (1986)
Month to date precipitation T 0.14  
Year to date precipitation 16.71 17.17  
Sea Level Pressure  
Sea Level Pressure 30.24 in    
Wind  
Wind Speed 18 mph (SSE)    
Max Wind Speed 23 mph    
Max Gust Speed 32 mph    
Visibility 8 miles    
Events Snow    
T = Trace of Precipitation, MM = Missing Value Source: NWS Daily Summary

Daily Weather History Graph

Daily Weather History Graph

Search for Another Location

Airport or City:

Trip Planner

Search our weather history database for the weather conditions in past years. The results will help you decide how hot, cold, wet, or windy it might be!

Date:

Astronomy

Dec. 07, 2013 Rise Set
Actual Time 6:55 AM MST 4:25 PM MST
Civil Twilight 6:25 AM MST 4:55 PM MST
Nautical Twilight 5:52 AM MST 5:29 PM MST
Astronomical Twilight 5:19 AM MST 6:01 PM MST
Moon 10:43 AM MST (12/7) 10:08 PM MST (12/7)
Length of Visible Light 10h 30m
Length of Day
9h 30m
Waxing Crescent, 30% of the Moon is Illuminated
Dec 7
Waxing Crescent
Dec 9
First Quarter
Dec 17
Full
Dec 25
Last Quarter
Jan 1
New

Hourly Weather History & Observations

Time (MST) Temp. Windchill Dew Point Humidity Pressure Visibility Wind Dir Wind Speed Gust Speed Precip Events Conditions
12:53 AM 5.0 °F -13.0 °F -7.1 °F 58% 30.50 in 10.0 mi SSE 15.0 mph - N/A   Overcast
1:53 AM 5.0 °F -14.7 °F -7.1 °F 58% 30.50 in 10.0 mi SSE 18.4 mph - N/A   Overcast
2:53 AM 5.0 °F -11.6 °F -6.0 °F 61% 30.49 in 10.0 mi SSE 12.7 mph - N/A   Overcast
3:53 AM 5.0 °F -13.6 °F -7.1 °F 58% 30.48 in 10.0 mi SSE 16.1 mph 21.9 mph N/A   Overcast
4:53 AM 5.0 °F -15.7 °F -7.1 °F 58% 30.47 in 10.0 mi SSE 20.7 mph - N/A   Overcast
5:53 AM 3.9 °F -15.0 °F -7.1 °F 60% 30.48 in 10.0 mi SSE 16.1 mph - N/A   Overcast
6:53 AM 3.9 °F -16.1 °F -7.1 °F 60% 30.49 in 10.0 mi SSE 18.4 mph - N/A   Overcast
7:53 AM 5.0 °F -14.2 °F -6.0 °F 61% 30.48 in 10.0 mi SSE 17.3 mph - N/A   Overcast
8:53 AM 5.0 °F -14.7 °F -7.1 °F 58% 30.47 in 10.0 mi SSE 18.4 mph 28.8 mph N/A   Overcast
9:53 AM 6.1 °F -15.2 °F -5.1 °F 60% 30.44 in 10.0 mi SSE 23.0 mph 28.8 mph N/A   Overcast
10:53 AM 6.1 °F -15.2 °F -4.0 °F 63% 30.41 in 10.0 mi SSE 23.0 mph 26.5 mph N/A   Overcast
11:46 AM 6.8 °F -12.9 °F -2.2 °F 67% 30.14 in 10.0 mi SSE 19.6 mph 28.8 mph N/A   Overcast
11:53 AM 7.0 °F -12.6 °F -2.9 °F 64% 30.35 in 10.0 mi SSE 19.6 mph - N/A   Overcast
12:19 PM 6.8 °F -13.4 °F -2.2 °F 67% 30.10 in 10.0 mi SSE 20.7 mph - N/A   Overcast
12:53 PM 7.0 °F -13.1 °F -0.9 °F 70% 30.29 in 8.0 mi SSE 20.7 mph 28.8 mph N/A   Overcast
1:53 PM 8.1 °F -12.6 °F 1.0 °F 73% 30.23 in 5.0 mi SSE 23.0 mph 32.2 mph N/A   Haze
2:53 PM 8.1 °F -12.2 °F 1.9 °F 76% 30.19 in 4.0 mi SSE 21.9 mph 32.2 mph N/A   Haze
3:30 PM 6.8 °F -13.4 °F 1.4 °F 79% 29.97 in 2.5 mi SSE 20.7 mph 27.6 mph 0.00 in Snow Light Snow
3:37 PM 6.8 °F -12.4 °F 1.4 °F 79% 29.97 in 3.0 mi SSE 18.4 mph 27.6 mph 0.00 in Snow Light Snow
3:45 PM 6.8 °F -14.3 °F 1.4 °F 79% 29.96 in 2.5 mi SE 23.0 mph 28.8 mph 0.00 in Snow Light Snow
3:53 PM 7.0 °F -13.1 °F 1.9 °F 80% 30.17 in 2.5 mi SE 20.7 mph 28.8 mph 0.00 in Snow Light Snow
4:21 PM 6.8 °F -11.8 °F 1.4 °F 79% 29.97 in 3.0 mi SSE 17.3 mph - 0.00 in   Haze
4:53 PM 6.1 °F -13.3 °F 1.0 °F 80% 30.17 in 6.0 mi SE 18.4 mph - 0.00 in   Haze
5:51 PM 6.8 °F -10.7 °F 1.4 °F 79% 29.96 in 4.0 mi SSE 15.0 mph 24.2 mph N/A   Haze
5:53 PM 6.1 °F -11.6 °F 1.0 °F 80% 30.18 in 4.0 mi SE 15.0 mph 24.2 mph N/A   Haze
6:53 PM 6.1 °F -12.8 °F 1.0 °F 80% 30.16 in 6.0 mi SE 17.3 mph - N/A   Haze
7:53 PM 6.1 °F -13.3 °F 1.0 °F 80% 30.14 in 9.0 mi SE 18.4 mph - N/A   Overcast
8:53 PM 6.1 °F -13.8 °F 1.0 °F 80% 30.12 in 8.0 mi SSE 19.6 mph 25.3 mph N/A   Overcast
9:53 PM 6.1 °F -13.3 °F 1.0 °F 80% 30.11 in 10.0 mi SE 18.4 mph - N/A   Overcast
10:53 PM 6.1 °F -12.8 °F -0.0 °F 76% 30.09 in 10.0 mi SE 17.3 mph 24.2 mph N/A   Overcast
11:53 PM 6.1 °F -12.2 °F -0.0 °F 76% 30.05 in 10.0 mi SE 16.1 mph - N/A   Overcast